Hourly Weather Roundup
Issued by NWS Central Illinois

Home | Current Version | Previous Version | Text Only | Print | Product List | Glossary On
Versions: 1 2 3 4 5 6 7 8 9 10 11 12 13 14 15 16 17 18 19 20 21 22 23 24 25 26 27 28 29 30 31 32 33 34 35 36 37 38 39 40 41 42 43 44 45 46 47 48 49 50
000
NZUS43 KILX 030210
HWRILX

AREA WEATHER ROUNDUP
NATIONAL WEATHER SERVICE, LINCOLN IL
800 PM CST MON MAR 02 2015


CITY           SKY/WX    TMP DP  RH WIND       PRES   REMARKS
BLOOMINGTON    MOCLDY    20  17  88 SE8       30.33F WCI  10
CHAMPAIGN      CLOUDY    22  16  78 E7        30.35F WCI  13
DECATUR        CLOUDY    21  17  84 E9        30.33F WCI  11
FLORA          MOCLDY    27  19  72 E3        30.35F
GALESBURG      CLOUDY    27  19  71 E6        30.27F WCI  20
JACKSONVILLE   CLOUDY    29  19  66 SE9       30.30F WCI  21
LACON          CLOUDY    26  19  76 SE7       30.33F WCI  18
LAWRENCEVILLE  MOCLDY    27  19  72 NE7       30.38R WCI  19
LITCHFIELD     CLOUDY    28  16  60 SE8       30.31F WCI  20
$$


CITY           SKY/WX    TMP DP  RH WIND       PRES   REMARKS
LINCOLN        CLOUDY    22  19  85 E8        30.34F WCI  13
MACOMB         CLOUDY    27  21  77 SE10      30.30F WCI  18
MATTOON        MOCLDY    21  15  78 E6        30.33F WCI  13
MT CARMEL AP   MOCLDY    32  21  64 NE6       30.37S WCI  26
OLNEY-NOBLE AP MOCLDY    28  19  69 E6        30.35F WCI  22
PARIS          MOCLDY    25  19  79 CALM      30.36F
PEORIA         CLOUDY    28  19  69 SE9       30.31F WCI  19
PONTIAC        CLOUDY    26  21  82 SE5       30.36F WCI  20
RANTOUL        MOCLDY    22  18  85 E5        30.35F WCI  15
ROBINSON       PTCLDY    27  23  84 CALM      30.38F
SPRINGFIELD    CLOUDY    28  20  71 E9        30.31F WCI  19
TAYLORVILLE    CLOUDY    28  19  69 E8        30.32F WCI  20
$$

...REGIONAL REPORTS...


CITY           SKY/WX    TMP DP  RH WIND       PRES   REMARKS
CHICAGO O`HARE CLOUDY    27  16  63 SW7       30.34F WCI  19
KANKAKEE       CLOUDY    25  19  76 S3        30.38F
MOLINE         CLOUDY    27  18  69 E8        30.28F WCI  19
MOUNT VERNON   CLOUDY    28  16  59 E5        30.34F WCI  23
PITTSFIELD     CLOUDY    30  21  69 SE8       30.28F WCI  22
QUINCY         CLOUDY    29  19  66 SE9       30.26F WCI  20
ROCKFORD       CLOUDY    25  17  72 S12       30.34F WCI  14
$$


CITY           SKY/WX    TMP DP  RH WIND       PRES   REMARKS
BURLINGTON     CLOUDY    27  20  75 SE10      30.24F WCI  17
CEDAR RAPIDS   CLOUDY    24  18  77 SE10      30.23F WCI  14
DES MOINES     CLOUDY    30  17  58 SE8       30.17F WCI  22
KIRKSVILLE     CLOUDY    31  23  72 SE8       30.22F WCI  23
OTTUMWA        CLOUDY    25  18  74 SE8       30.22F WCI  16
ST LOUIS       CLOUDY    31  19  61 E9        30.31F WCI  23
$$


CITY           SKY/WX    TMP DP  RH WIND       PRES   REMARKS
TERRE HAUTE    MOCLDY    28  16  60 E6        30.37S WCI  22
EVANSVILLE     PTCLDY    32  22  66 N5        30.36F WCI  27
INDIANAPOLIS   CLOUDY    27  15  61 E5        30.36F WCI  22
LAFAYETTE      MOCLDY    24  15  68 CALM      30.39R
MADISON        CLOUDY    24  11  57 S10       30.29F WCI  14
MILWAUKEE      CLOUDY    25  14  63 S7        30.33F WCI  17
$$





USA.gov is the U.S. government's official web portal to all federal, state and local government web resources and services.